Weather reports worldwide

Advertisment
Yeovilton, United Kingdom (3853): temperature & dewpoint: 25.09.2020 23:00:00 - 01.10.2020 23:00:00 (BST)Yeovilton, United Kingdom (3853): temperature -20cm & temperature -100cm: 25.09.2020 23:00:00 - 01.10.2020 23:00:00 (BST)Yeovilton, United Kingdom (3853): wind speed & gusts: 25.09.2020 23:00:00 - 01.10.2020 23:00:00 (BST)Yeovilton, United Kingdom (3853): wind direction: 25.09.2020 23:00:00 - 01.10.2020 23:00:00 (BST)Yeovilton, United Kingdom (3853): reduced air pressure: 25.09.2020 23:00:00 - 01.10.2020 23:00:00 (BST)Yeovilton, United Kingdom (3853): visibility: 25.09.2020 23:00:00 - 01.10.2020 23:00:00 (BST)Yeovilton, United Kingdom (3853): sunshine duration: 25.09.2020 23:00:00 - 01.10.2020 23:00:00 (BST)Yeovilton, United Kingdom (3853): precipitation: 25.09.2020 23:00:00 - 01.10.2020 23:00:00 (BST)
Date & Time tt [°C] td [°C] tt -20cm [°C] tt -100cm [°C] ff [km/h] ff [kn] fx [km/h] fx [kn] dd ppp [hPa] vv [km] sd [min] rr [mm]
01.10.2020 23:00:00 10,1 10,1 - - 15 8 - - E 989,1 45 0 -
01.10.2020 22:00:00 9,9 9,9 - - 13 7 - - E 990,1 8 0 0,0
01.10.2020 21:00:00 9,9 9,7 - - 11 6 - - E 991,2 7 0 0,6
01.10.2020 20:00:00 10,0 9,7 - - 11 6 - - SE 992,5 5 0 2,4
01.10.2020 19:00:00 10,7 9,2 - - 13 7 - - SE 993,5 5 0 0,8
01.10.2020 18:00:00 12,1 8,2 - - 11 6 - - SSE 994,2 9 0 0,0
01.10.2020 17:00:00 13,1 6,5 - - 16 9 - - S 995,4 20 6 0,0
01.10.2020 16:00:00 13,9 7,0 - - 13 7 - - S 996,4 10 18 0,0
01.10.2020 15:00:00 12,0 7,1 - - 9 5 - - WNW 997,5 10 18 0,0
01.10.2020 14:00:00 13,7 7,9 - - 5 3 - - NNW 998,2 20 48 0,0
01.10.2020 13:00:00 11,8 7,9 - - 18 10 - - NW 999,2 10 18 0,0
01.10.2020 12:00:00 12,6 8,3 - - 16 9 - - W 999,5 18 36 0,0
01.10.2020 11:00:00 11,4 8,1 - - 9 5 - - W 999,7 15 12 0,0
01.10.2020 10:00:00 10,3 10,2 14,0 14,9 5 3 - - NW 999,9 10 6 0,0
01.10.2020 09:00:00 9,3 9,3 - - 4 2 - - WSW 1000,0 8 6 0,0
01.10.2020 08:00:00 7,5 7,5 - - 4 2 - - W 1000,1 8 0 -
01.10.2020 07:00:00 7,0 7,0 - - 4 2 - - W 1000,0 0,5 0 0,0
01.10.2020 06:00:00 9,0 9,0 - - 9 5 - - WSW 999,9 50 0 0,0
01.10.2020 05:00:00 10,2 10,2 - - 11 6 - - W 999,9 50 0 -
01.10.2020 04:00:00 9,2 9,2 - - 9 5 - - W 1000,0 15 0 0,0
01.10.2020 03:00:00 10,4 10,4 - - 4 2 - - SW 1000,0 30 0 0,2
01.10.2020 02:00:00 10,1 10,1 - - 5 3 - - W 1000,4 40 0 0,2
01.10.2020 01:00:00 10,3 10,3 - - 8 4 - - WSW 1000,7 40 - 0,0
01.10.2020 00:00:00 11,4 11,4 - - 8 4 - - WSW 1000,7 50 0 0,0
30.09.2020 23:00:00 11,8 11,8 - - 11 6 - - WSW 1001,1 10 0 0,0
30.09.2020 22:00:00 10,7 10,7 - - 2 1 - - WSW 1001,1 10 0 0,0
30.09.2020 21:00:00 11,7 11,7 - - 11 6 - - SW 1001,1 15 0 0,0
30.09.2020 20:00:00 12,7 12,7 - - 11 6 - - SSW 1001,1 15 0 -
30.09.2020 19:00:00 14,0 14,0 - - 9 5 - - SSW 1000,8 10 0 1,4
30.09.2020 18:00:00 14,6 14,6 - - 16 9 - - SSW 1000,5 7 0 4,2
30.09.2020 17:00:00 14,9 14,9 - - 24 13 46 25 S 1001,1 2,0 0 2,6
30.09.2020 16:00:00 15,0 14,9 - - 31 17 46 25 S 1001,9 3,0 0 0,4
30.09.2020 15:00:00 14,9 14,7 - - 26 14 - - S 1002,5 10 0 1,8
30.09.2020 14:00:00 14,2 14,2 - - 26 14 - - S 1003,7 4,0 0 1,0
30.09.2020 13:00:00 14,6 13,4 - - 28 15 54 29 S 1004,8 5 0 0,2
30.09.2020 12:00:00 15,4 12,3 - - 28 15 55 30 S 1005,4 15 0 -
30.09.2020 11:00:00 15,1 11,9 - - 31 17 55 30 S 1005,9 10 0 0,0
30.09.2020 10:00:00 14,3 11,4 - - 21 11 - - S 1006,8 10 0 0,2
30.09.2020 09:00:00 13,3 11,5 - - 11 6 - - SE 1007,9 10 0 0,0
30.09.2020 08:00:00 12,5 10,7 - - 13 7 - - S 1008,7 10 0 0,0
30.09.2020 07:00:00 11,0 9,9 - - 13 7 - - ESE 1009,4 10 0 0,0
30.09.2020 06:00:00 9,5 9,0 - - 13 7 - - ESE 1009,9 50 0 -
30.09.2020 05:00:00 9,1 8,7 - - 13 7 - - SSE 1010,7 45 0 0,0
30.09.2020 04:00:00 8,9 8,8 - - 9 5 - - SSE 1011,4 35 0 -
30.09.2020 03:00:00 7,8 7,7 - - 5 3 - - S 1012,6 45 0 0,0
30.09.2020 02:00:00 7,7 7,7 - - 5 3 - - SSE 1013,4 30 0 0,0
30.09.2020 01:00:00 9,0 8,9 - - 8 4 - - WSW 1013,9 10 - 0,0
30.09.2020 00:00:00 9,5 9,4 - - 4 2 - - E 1014,4 25 0 0,0
29.09.2020 23:00:00 9,8 9,7 - - 4 2 - - SE 1014,8 10 0 0,0
29.09.2020 22:00:00 9,5 8,5 - - 4 2 - - SSE 1015,3 10 0 0,0
29.09.2020 21:00:00 12,8 9,6 - - 4 2 - - WNW 1015,6 10 0 0,0
29.09.2020 20:00:00 13,7 10,0 - - 4 2 - - WSW 1015,6 20 0 0,0
29.09.2020 19:00:00 14,3 9,6 - - 4 2 - - WNW 1015,7 10 0 0,0
29.09.2020 18:00:00 15,2 9,5 - - 11 6 - - NW 1015,6 25 0 -
29.09.2020 17:00:00 15,9 9,4 - - 9 5 - - NW 1015,6 10 0 0,0
29.09.2020 16:00:00 17,1 8,7 - - 8 4 - - WSW 1015,7 10 0 0,0
29.09.2020 15:00:00 17,6 8,5 - - 9 5 - - NW 1016,1 25 30 -
29.09.2020 14:00:00 17,3 10,3 - - 9 5 - - WNW 1016,5 25 6 0,0
29.09.2020 13:00:00 17,2 10,5 - - 9 5 - - NW 1016,8 10 30 0,0
29.09.2020 12:00:00 16,3 11,6 - - 5 3 - - NNW 1016,9 10 36 0,0
29.09.2020 11:00:00 15,9 12,5 - - 11 6 - - NW 1017,1 10 60 0,0
29.09.2020 10:00:00 15,3 12,4 14,2 15,2 11 6 - - NNW 1017,0 14 60 0,0
29.09.2020 09:00:00 13,6 13,6 - - 5 3 - - WNW 1016,5 6 36 0,0
29.09.2020 08:00:00 12,6 12,6 - - 5 3 - - W 1016,3 6 0 0,0
29.09.2020 07:00:00 12,9 12,9 - - 5 3 - - W 1015,8 15 0 0,0
29.09.2020 06:00:00 13,7 13,7 - - 8 4 - - WNW 1015,5 20 0 0,0
29.09.2020 05:00:00 14,1 14,1 - - 11 6 - - WNW 1015,1 35 0 0,0
29.09.2020 04:00:00 14,2 14,2 - - 11 6 - - WNW 1015,0 35 0 0,0
29.09.2020 03:00:00 14,6 14,6 - - 11 6 - - WNW 1014,8 10 0 0,0
29.09.2020 02:00:00 14,9 14,8 - - 13 7 - - W 1014,6 10 0 0,0
29.09.2020 01:00:00 15,3 15,3 - - 15 8 - - W 1014,4 16 - 0,0
29.09.2020 00:00:00 15,8 15,8 - - 5 3 - - WSW 1014,4 10 0 0,0
28.09.2020 23:00:00 15,8 15,8 - - 8 4 - - SW 1014,4 10 0 0,0
28.09.2020 22:00:00 15,6 15,5 - - 5 3 - - S 1014,4 4,0 0 0,8
28.09.2020 21:00:00 15,7 15,7 - - 11 6 - - SSW 1014,3 3,0 0 0,6
28.09.2020 20:00:00 15,8 15,8 - - 8 4 - - S 1014,1 9 0 0,0
28.09.2020 19:00:00 16,0 15,7 - - 9 5 - - SSW 1013,8 9 0 0,0
28.09.2020 18:00:00 16,5 16,3 - - 11 6 - - SSW 1013,3 8 0 0,2
28.09.2020 17:00:00 16,2 16,1 - - 11 6 - - SW 1013,4 2,0 0 0,0
28.09.2020 16:00:00 18,1 14,0 - - 15 8 - - WSW 1013,3 18 0 0,0
28.09.2020 15:00:00 18,3 13,7 - - 15 8 - - W 1013,4 20 0 0,0
28.09.2020 14:00:00 17,9 13,9 - - 15 8 - - W 1013,9 20 6 0,0
28.09.2020 13:00:00 16,4 13,2 - - 8 4 - - SSW 1014,3 10 6 0,0
28.09.2020 12:00:00 14,1 12,7 - - 4 2 - - S 1014,7 10 0 0,0
28.09.2020 11:00:00 10,8 9,3 - - 2 1 - - SE 1015,0 10 0 0,0
28.09.2020 10:00:00 8,8 8,5 13,5 15,0 4 2 - - E 1014,9 10 0 0,0
28.09.2020 09:00:00 6,5 6,5 - - 4 2 - - SE 1014,8 8 0 0,0
28.09.2020 08:00:00 3,6 3,6 - - 5 3 - - ESE 1014,6 6 0 0,0
28.09.2020 07:00:00 1,5 1,4 - - 2 1 - - SE 1014,5 10 0 0,0
28.09.2020 06:00:00 1,3 1,0 - - 2 1 - - ESE 1014,6 16 0 0,0
28.09.2020 05:00:00 2,5 2,3 - - 2 1 - - NNE 1014,8 10 0 0,0
28.09.2020 04:00:00 2,5 2,1 - - 5 3 - - ESE 1015,1 24 0 -
28.09.2020 03:00:00 3,0 2,4 - - 2 1 - - S 1015,8 17 0 0,0
28.09.2020 02:00:00 5,1 4,6 - - 4 2 - - W 1016,2 30 0 0,0
28.09.2020 01:00:00 4,9 3,8 - - 8 4 - - SSW 1016,1 40 - 0,0
28.09.2020 00:00:00 7,0 5,9 - - 5 3 - - NW 1016,1 45 0 0,0
27.09.2020 23:00:00 7,7 6,4 - - 11 6 - - W 1016,0 40 0 0,0
27.09.2020 22:00:00 9,0 7,1 - - 8 4 - - WSW 1015,8 50 0 0,0
27.09.2020 21:00:00 10,6 7,9 - - 13 7 - - W 1015,2 40 0 -
27.09.2020 20:00:00 11,3 7,7 - - 15 8 - - W 1015,0 50 0 0,0
27.09.2020 19:00:00 13,4 8,0 - - 22 12 - - NW 1014,7 45 42 0,0
27.09.2020 18:00:00 14,8 8,4 - - 26 14 - - WNW 1014,6 45 60 -
27.09.2020 17:00:00 15,9 6,6 - - 24 13 - - NW 1014,4 45 60 0,0
27.09.2020 16:00:00 16,6 4,5 - - 22 12 - - NW 1014,6 40 60 0,0
27.09.2020 15:00:00 15,9 3,4 - - 28 15 - - NW 1014,8 10 60 0,0
27.09.2020 14:00:00 14,9 4,6 - - 18 10 - - NNW 1015,4 28 60 0,0
27.09.2020 13:00:00 13,8 4,5 - - 26 14 - - NNW 1015,7 30 60 0,0
27.09.2020 12:00:00 12,4 3,9 - - 29 16 - - NNW 1015,7 10 60 0,0
27.09.2020 11:00:00 11,3 4,5 - - 31 17 - - NNW 1015,8 26 60 0,0
27.09.2020 10:00:00 10,3 4,2 - - 26 14 - - NNW 1015,9 10 60 -
27.09.2020 09:00:00 9,4 4,0 - - 24 13 - - NNW 1015,9 10 60 0,0
27.09.2020 08:00:00 8,4 3,6 - - 21 11 - - NNW 1015,5 28 18 0,0
27.09.2020 07:00:00 8,4 3,7 - - 16 9 - - NNW 1015,9 30 0 0,0
27.09.2020 06:00:00 8,6 3,5 - - 21 11 - - NW 1015,7 50 0 -
27.09.2020 05:00:00 9,0 3,9 - - 16 9 - - NW 1015,7 40 0 0,0
27.09.2020 04:00:00 9,6 4,2 - - 21 11 - - NW 1016,0 35 0 0,0
27.09.2020 03:00:00 8,9 4,2 - - 22 12 - - WNW 1016,2 40 0 0,0
27.09.2020 02:00:00 9,4 4,2 - - 18 10 - - NW 1016,1 50 0 0,0
27.09.2020 01:00:00 10,3 4,9 - - 15 8 - - NW 1016,4 45 - 0,0
27.09.2020 00:00:00 10,2 4,9 - - 16 9 - - NW 1016,6 50 0 0,0
26.09.2020 23:00:00 9,6 5,2 - - 15 8 - - NW 1016,5 50 0 0,0
26.09.2020 22:00:00 8,7 3,9 - - 11 6 - - WNW 1016,6 50 0 -
26.09.2020 21:00:00 10,7 4,0 - - 16 9 - - NW 1016,3 10 0 0,0
26.09.2020 20:00:00 11,0 3,7 - - 15 8 - - NNW 1015,9 10 0 0,0
26.09.2020 19:00:00 11,3 3,1 - - 16 9 - - NNW 1015,5 10 48 0,0
26.09.2020 18:00:00 12,8 2,6 - - 29 16 - - N 1014,8 50 54 0,0
26.09.2020 17:00:00 13,7 1,7 - - 31 17 - - NNW 1014,4 50 60 0,0
26.09.2020 16:00:00 13,8 0,9 - - 29 16 - - NNW 1014,0 45 60 0,0
26.09.2020 15:00:00 13,5 1,7 - - 28 15 46 25 N 1013,7 50 60 0,0
26.09.2020 14:00:00 13,0 1,5 - - 29 16 46 25 NNW 1014,2 50 60 0,0
26.09.2020 13:00:00 12,4 1,3 - - 26 14 - - NNW 1014,4 50 54 0,0
26.09.2020 12:00:00 11,8 1,7 - - 24 13 - - N 1014,6 50 54 0,0
26.09.2020 11:00:00 10,3 2,7 - - 24 13 - - NNW 1014,6 50 48 0,0
26.09.2020 10:00:00 10,1 4,0 - - 18 10 - - NNW 1014,5 30 60 0,0
26.09.2020 09:00:00 8,9 4,6 - - 16 9 - - NW 1014,3 35 60 0,0
26.09.2020 08:00:00 6,0 4,5 - - 11 6 - - W 1014,1 50 24 0,0
26.09.2020 07:00:00 6,0 4,0 - - 13 7 - - W 1013,7 45 0 0,0
26.09.2020 06:00:00 5,8 3,7 - - 15 8 - - W 1013,5 30 0 0,0
26.09.2020 05:00:00 5,1 3,4 - - 9 5 - - W 1013,6 45 0 0,0
26.09.2020 04:00:00 5,8 2,2 - - 5 3 - - W 1013,7 45 0 0,0
26.09.2020 03:00:00 7,1 3,7 - - 11 6 - - WNW 1013,7 40 0 0,0
26.09.2020 02:00:00 8,0 4,2 - - 16 9 - - WNW 1013,8 45 0 0,0
26.09.2020 01:00:00 8,6 5,0 - - 15 8 - - WNW 1013,9 45 - 0,0
26.09.2020 00:00:00 9,6 5,3 - - 22 12 - - NW 1013,6 50 0 0,0
25.09.2020 23:00:00 9,6 5,7 - - 21 11 - - WNW 1013,6 50 0 0,0

tt = temperature
td = dewpoint
tt -20cm = temperature -20cm
tt -100cm = temperature -100cm
ff = wind speed
fx = gusts
dd = wind direction
ppp = reduced air pressure
vv = visibility
sd = sunshine duration
rr = precipitation

Next stations